{"data":{"norad_id":65442,"epoch":"2026-05-25T03:18:19.975680Z","epoch_age_seconds":73399,"freshness":"FRESH","line1":"1 65442U 25194J   26145.13773120  .00004512  00000+0  31651-3 0  9994","line2":"2 65442  97.4522 359.4081 0001823  83.4021 276.7413 15.05660363 41150","mean_motion":15.05660363,"eccentricity":0.0001823,"inclination_deg":97.4522,"raan_deg":359.4081,"arg_perigee_deg":83.4021,"mean_anomaly_deg":276.7413,"bstar":0.00031651,"rev_number":4115,"period_min":95.639098656408,"perigee_km":548.21646228268,"apogee_km":550.74227120999,"semimajor_km":6927.6163667463,"source":"CELESTRAK","updated_at":"2026-05-25T13:38:20.807375Z"}}